Weather History for Cold Bay, AK

Change the Weather History Date:

Wednesday, February 13, 2013

  Actual Average Record
Temperature  
Mean Temperature 22 °F 29 °F  
Max Temperature 31 °F 34 °F 41 °F (1986)
Min Temperature 12 °F 24 °F 3 °F (1972)
Degree Days  
Heating Degree Days 43 36  
Month to date heating degree days 424 473  
Since 1 July heating degree days 5841 5689  
Cooling Degree Days 0    
Month to date cooling degree days 0  
Year to date cooling degree days 0  
Moisture  
Dew Point 21 °F    
Average Humidity 82    
Maximum Humidity 93    
Minimum Humidity 61    
Precipitation  
Precipitation 0.03 in 0.11 in 1.62 in (2006)
Month to date precipitation 0.93 1.37  
Year to date precipitation 4.52 4.53  
Snow  
Snow 0.30 in 0.50 in 2.10 in (1965)
Month to date snowfall 6.4 6.0  
Since 1 July snowfall 47.1 45.3  
Snow Depth 1.00 in    
Sea Level Pressure  
Sea Level Pressure 29.43 in    
Wind  
Wind Speed 20 mph (North)    
Max Wind Speed 33 mph    
Max Gust Speed 43 mph    
Visibility 4 miles    
Events Fog , Snow    
T = Trace of Precipitation, MM = Missing Value Source: NWS Daily Summary

Daily Weather History Graph

Daily Weather History Graph

Search for Another Location

Airport:

Trip Planner

Search our weather history database for the weather conditions in past years. The results will help you decide how hot, cold, wet, or windy it might be!

Date:

Astronomy

Feb. 13, 2013 Rise Set
Actual Time 9:17 AM AKST 6:53 PM AKST
Civil Twilight 8:39 AM AKST 7:32 PM AKST
Nautical Twilight 7:56 AM AKST 8:14 PM AKST
Astronomical Twilight 7:14 AM AKST 8:57 PM AKST
Moon 10:04 AM AKST (2/13) No Moon Set
Length of Visible Light 10h 53m
Length of Day
9h 36m
Waxing Crescent, 15% of the Moon is Illuminated
Feb 13
Waxing Crescent
Feb 17
First Quarter
Feb 25
Full
Mar 4
Last Quarter
Mar 11
New

Hourly Weather History & Observations

Time (AKST) Temp. Windchill Dew Point Humidity Pressure Visibility Wind Dir Wind Speed Gust Speed Precip Events Conditions
12:53 AM 17.1 °F 11.7 °F 14.0 °F 88% 29.61 in 10.0 mi South 3.5 mph - N/A   Clear
1:53 AM 23.0 °F 18.4 °F 17.1 °F 78% 29.58 in 10.0 mi NNE 3.5 mph - N/A   Clear
3:53 AM 17.1 °F - 12.0 °F 81% 29.52 in 10.0 mi Calm Calm - N/A   Clear
4:53 AM 27.0 °F 18.0 °F 18.0 °F 69% 29.49 in 10.0 mi NE 9.2 mph - N/A   Clear
5:53 AM 27.0 °F 15.6 °F 17.1 °F 66% 29.45 in 10.0 mi NNE 13.8 mph - N/A   Clear
6:53 AM 28.9 °F 21.1 °F 17.1 °F 61% 29.44 in 10.0 mi NNE 8.1 mph - N/A   Scattered Clouds
7:53 AM 25.0 °F 12.6 °F 19.0 °F 78% 29.41 in 10.0 mi North 15.0 mph - N/A   Mostly Cloudy
8:53 AM 27.0 °F 13.2 °F 21.0 °F 78% 29.39 in 10.0 mi North 20.7 mph - N/A   Overcast
9:53 AM 28.9 °F 14.5 °F 21.9 °F 75% 29.39 in 10.0 mi NNE 25.3 mph 35.7 mph N/A   Overcast
10:53 AM 30.0 °F 16.6 °F 23.0 °F 75% 29.38 in 10.0 mi NNE 23.0 mph - N/A   Overcast
11:53 AM 30.9 °F 18.4 °F 24.1 °F 76% 29.39 in 10.0 mi NNE 20.7 mph 29.9 mph N/A   Overcast
12:53 PM 30.9 °F 18.1 °F 25.0 °F 79% 29.39 in 5.0 mi North 21.9 mph 28.8 mph 0.00 in Snow Light Snow
1:53 PM 30.9 °F 16.9 °F 27.0 °F 85% 29.37 in 3.0 mi North 26.5 mph 33.4 mph 0.00 in Snow Light Snow
1:57 PM 30.2 °F 15.7 °F 26.6 °F 86% 29.37 in 1.8 mi North 27.6 mph 35.7 mph 0.00 in Snow Light Snow
2:08 PM 30.2 °F 15.7 °F 26.6 °F 86% 29.37 in 1.8 mi North 27.6 mph 36.8 mph 0.00 in Snow Light Snow
2:11 PM 30.2 °F 15.4 °F 26.6 °F 86% 29.36 in 2.0 mi North 28.8 mph 36.8 mph 0.00 in Snow Light Snow
2:23 PM 30.2 °F 15.4 °F 24.8 °F 80% 29.37 in 3.0 mi North 28.8 mph 39.1 mph 0.00 in Snow Light Snow
2:49 PM 28.4 °F 13.5 °F 24.8 °F 86% 29.38 in 8.0 mi North 26.5 mph 36.8 mph 0.00 in Snow Light Snow
2:53 PM 28.9 °F 13.7 °F 25.0 °F 85% 29.38 in 5.0 mi North 28.8 mph 35.7 mph 0.00 in Snow Light Snow
3:06 PM 28.4 °F 12.7 °F 24.8 °F 86% 29.38 in 7.0 mi North 29.9 mph 38.0 mph 0.00 in Snow Light Snow
3:15 PM 28.4 °F 13.3 °F 24.8 °F 86% 29.38 in 5.0 mi North 27.6 mph 36.8 mph 0.00 in Snow Light Snow
3:53 PM 28.9 °F 13.7 °F 24.1 °F 82% 29.39 in 5.0 mi North 28.8 mph 36.8 mph 0.00 in Snow Light Snow
4:12 PM 28.4 °F 13.5 °F 24.8 °F 86% 29.38 in 2.5 mi North 26.5 mph 35.7 mph 0.00 in Snow Light Snow
4:23 PM 28.4 °F 12.5 °F 23.0 °F 80% 29.38 in 2.5 mi North 31.1 mph 40.3 mph 0.00 in Snow Light Snow
4:31 PM 28.4 °F 12.7 °F 23.0 °F 80% 29.39 in 4.0 mi North 29.9 mph 38.0 mph 0.00 in Snow Light Snow
4:53 PM 28.0 °F 13.0 °F 23.0 °F 81% 29.40 in 4.0 mi North 26.5 mph 36.8 mph 0.00 in Snow Light Snow
5:30 PM 26.6 °F 10.6 °F 21.2 °F 80% 29.41 in 4.0 mi North 28.8 mph 35.7 mph 0.00 in Snow Light Snow
5:53 PM 27.0 °F 11.3 °F 21.9 °F 81% 29.42 in 3.0 mi North 27.6 mph 35.7 mph 0.00 in Snow Light Snow
6:16 PM 26.6 °F 10.8 °F 23.0 °F 86% 29.43 in 3.0 mi North 27.6 mph 34.5 mph 0.00 in Snow Light Snow
6:23 PM 26.6 °F 11.1 °F 21.2 °F 80% 29.42 in 2.5 mi North 26.5 mph 34.5 mph 0.00 in Snow Light Snow
6:53 PM 27.0 °F 11.9 °F 21.9 °F 81% 29.43 in 1.0 mi North 25.3 mph 34.5 mph 0.00 in Snow Light Snow
6:56 PM 26.6 °F 11.1 °F 23.0 °F 86% 29.42 in 0.8 mi North 26.5 mph 32.2 mph 0.00 in Snow Light Snow
7:11 PM 26.6 °F 10.6 °F 23.0 °F 86% 29.42 in 1.0 mi North 28.8 mph 34.5 mph 0.00 in Snow Light Snow
7:19 PM 26.6 °F 11.1 °F 23.0 °F 86% 29.43 in 0.8 mi North 26.5 mph - 0.00 in Snow Light Snow
7:40 PM 24.8 °F 8.7 °F 23.0 °F 93% 29.43 in 0.5 mi North 26.5 mph 35.7 mph 0.00 in Fog , Snow Snow
7:53 PM 25.0 °F 8.6 °F 23.0 °F 92% 29.44 in 0.8 mi North 27.6 mph 34.5 mph 0.00 in Snow Light Snow
8:19 PM 24.8 °F 8.4 °F 21.2 °F 86% 29.45 in 1.0 mi North 27.6 mph 33.4 mph 0.02 in   Mist
8:42 PM 24.8 °F 9.0 °F 21.2 °F 86% 29.45 in 1.2 mi North 25.3 mph 35.7 mph 0.02 in   Overcast
8:50 PM 24.8 °F 8.7 °F 21.2 °F 86% 29.45 in 1.5 mi North 26.5 mph - 0.02 in   Overcast
8:53 PM 24.1 °F 7.1 °F 21.0 °F 88% 29.46 in 1.2 mi North 28.8 mph - 0.02 in   Overcast
9:33 PM 23.0 °F 6.3 °F 19.4 °F 86% 29.46 in 1.5 mi NNW 26.5 mph 34.5 mph N/A   Overcast
9:53 PM 23.0 °F 5.4 °F 19.0 °F 85% 29.47 in 1.0 mi NNW 29.9 mph 36.8 mph N/A   Overcast
10:20 PM 23.0 °F 6.0 °F 19.4 °F 86% 29.46 in 1.2 mi North 27.6 mph - N/A   Overcast
10:50 PM 21.2 °F 4.2 °F 19.4 °F 93% 29.47 in 1.2 mi NNW 25.3 mph - N/A   Overcast
10:53 PM 21.9 °F 4.5 °F 19.0 °F 89% 29.48 in 1.2 mi NNW 27.6 mph 34.5 mph N/A   Overcast
11:10 PM 21.2 °F 3.5 °F 17.6 °F 86% 29.47 in 1.2 mi NNW 27.6 mph 33.4 mph 0.01 in   Overcast
11:53 PM 21.0 °F 3.3 °F 18.0 °F 88% 29.49 in 1.5 mi North 27.6 mph 33.4 mph 0.01 in   Overcast